Cloud_Cover
0 91 14 0 1 0 0 0 0 0 0 0 0 0 0 0 1 5 5 5 20 73 96 89 66 20 5 5 5 5 5 5 4 4 5 5 4 2 0 0 1 1 1
0 76 7 0 0 0 0 0 0 0 0 0 3 4 10 36 69 25 55 94 99 100 99 93 50 47 14 5 5 4 3 3 3 4 5 5 5 4 5 5 5 5 5
16 100 23 0 2 0 1 4 5 5 5 5 52 99 100 100 100 100 100 100 96 82 41 10 9 5 5 5 5 5 5 5 5 5 5 5 5 5 5 5 5 6 33
100 17 100 62 100 5 5 5 13 45 72 96 96 98 98 93 57 19 19 5 9 56 86 44 7 5 5 5 5 5 5 4 5 5 7 9 6 5 7 6 69 57 24
72 36 40 27 6 0 2 5 5 5 16 21 7 21 10 18 21 32 13 37 29 14 6 5 5 5 70 84 74 100 74 31 74 62 63 98 100 100 100 100 58 63 98
20 0 15 0 0 0 5 5 5 5 5 5 5 43 73 23 14 68 65 14 36 77 67 84 64 24 35 89 79 66 100 100 33 45 97 100 100 100 100 100 100 100 100
0 0 4 5 5 5 5 5 5 5 5 5 5 20 98 90 24 72 97 100 99 100 100 100 100 100 73 66 78 55 100 99 61 100 99 96 100 100 100 100 100 100 100
5 5 5 5 5 5 5 12 28 40 63 45 70 23 17 36 79 69 44 80 100 100 100 100 100 78 59 34 11 5 7 5 15 66 92 91 12 9 33 11 5 22 24
5 18 12 21 47 52 55 43 56 89 100 99 92 100 100 80 82 81 99 95 63 62 33 49 51 21 55 48 62 61 24 93 100 91 87 6 48 97 56 5 5 6 5
5 8 8 21 94 83 96 87 99 100 100 100 100 100 100 100 100 100 100 48 96 95 100 100 100 98 11 5 21 7 5 5 5 5 6 5 5 13 22 16 17 6 33
5 5 8 33 10 14 47 100 98 100 100 100 100 86 100 98 53 100 100 100 100 100 100 100 67 8 11 59 76 100 100 82 100 37 51 88 86 98 96 83 99 77 35
40 100 99 100 100 100 100 100 100 71 88 83 38 94 93 90 97 100 99 100 100 100 100 100 100 100 100 100 100 100 100 100 100 57 19 7 98 45 22 49 75 71 11
98 100 100 100 93 99 100 100 97 88 86 100 75 95 100 100 100 72 72 100 100 100 100 100 100 100 100 97 100 100 100 98 40 17 6 5 16 12 7 48 85 62 22
100 100 100 100 100 100 100 98 93 80 91 99 100 100 100 88 100 100 100 100 100 100 100 100 100 100 98 100 49 5 5 5 3 17 17 63 14 51 56 47 98 99 100
100 100 100 93 95 100 100 100 100 100 100 74 89 100 77 93 86 92 88 96 64 100 100 100 100 100 100 97 93 16 62 5 5 5 58 100 100 100 100 100 100 100 100
100 100 100 100 100 100 100 100 95 87 70 83 100 100 97 86 60 46 6 9 9 77 100 100 100 100 100 84 24 69 7 53 100 100 100 100 79 96 65 54 98 100 100
100 100 100 100 100 100 100 100 100 100 100 100 100 100 81 37 10 5 35 97 72 76 90 100 99 91 48 78 61 72 75 94 100 100 100 63 14 95 100 56 99 78 100
91 100 86 100 100 100 100 100 96 100 100 100 69 5 5 5 24 93 100 98 92 86 100 100 93 83 98 96 80 58 90 98 100 46 86 91 68 5 5 55 90 100 100
86 7 100 100 100 100 100 100 97 86 72 6 5 5 9 5 12 41 13 12 70 97 100 97 79 65 57 85 100 72 99 95 77 14 34 19 5 12 5 100 100 100 100
5 5 14 44 90 91 74 78 35 49 24 30 17 5 5 5 5 6 60 28 5 75 60 81 100 100 100 100 100 100 100 100 92 48 7 68 85 80 93 100 100 100 100
5 5 6 11 32 18 5 5 8 5 5 5 5 5 5 5 5 5 8 11 29 90 100 70 100 100 100 100 100 100 100 100 94 100 99 72 94 68 100 99 100 100 100
7 31 65 7 5 5 5 5 5 5 30 5 5 5 37 43 5 5 70 5 97 100 100 95 100 100 100 100 100 100 100 100 100 100 100 100 100 100 100 100 100 100 100
81 64 74 98 5 5 5 5 5 22 13 5 8 77 55 49 64 79 34 32 18 46 96 85 96 100 100 100 100 100 100 100 100 100 100 100 100 100 100 100 100 100 100
95 98 96 83 32 5 9 5 5 5 5 5 51 6 13 93 95 65 70 95 34 100 100 100 94 100 100 100 100 100 100 100 100 100 100 100 100 100 100 100 100 100 100
100 100 99 90 98 49 32 6 76 13 52 19 75 48 69 90 100 95 34 95 100 100 100 93 100 100 100 100 100 100 100 100 100 100 100 100 100 100 100 100 100 100 100
100 100 88 86 79 100 100 100 74 29 72 98 100 100 100 100 100 100 100 100 100 100 100 100 100 100 100 100 100 100 100 100 100 100 100 100 100 100 100 100 100 100 100